Change the Weather History Date:

Saturday, March 15, 2014

  Actual Average Record
Temperature  
Mean Temperature 55 °F -  
Max Temperature 73 °F 53 °F 81 °F (2012)
Min Temperature 37 °F 28 °F 4 °F (1949)
Degree Days  
Heating Degree Days 10    
Growing Degree Days 5 (Base 50)    
Moisture  
Dew Point 26 °F    
Average Humidity 41    
Maximum Humidity 70    
Minimum Humidity 17    
Precipitation  
Precipitation 0.00 in - - ()
Sea Level Pressure  
Sea Level Pressure 29.89 in    
Wind  
Wind Speed 9 mph (SSE)    
Max Wind Speed 25 mph    
Max Gust Speed 36 mph    
Visibility 10 miles    
Events      
Averages and records for this station are not official NWS values.
T = Trace of Precipitation, MM = Missing Value Source: NWS Daily Summary

Daily Weather History Graph

Daily Weather History Graph

Search for Another Location

Airport or City:

Trip Planner

Search our weather history database for the weather conditions in past years. The results will help you decide how hot, cold, wet, or windy it might be!

Date:

Astronomy

Mar. 15, 2014 Rise Set
Actual Time 7:33 AM CDT 7:29 PM CDT
Civil Twilight 7:06 AM CDT 7:56 PM CDT
Nautical Twilight 6:35 AM CDT 8:27 PM CDT
Astronomical Twilight 6:03 AM CDT 8:59 PM CDT
Moon 6:49 PM CDT (3/15) 6:46 AM CDT (3/15)
Length of Visible Light 12h 49m
Length of Day
11h 55m
Waxing Gibbous, 99% of the Moon is Illuminated
Mar 15
Waxing Gibbous
Mar 16
Full
Mar 23
Last Quarter
Mar 30
New
Apr 7
First Quarter

Hourly Weather History & Observations

Time (CDT) Temp. Windchill Dew Point Humidity Pressure Visibility Wind Dir Wind Speed Gust Speed Precip Events Conditions
12:53 AM 37.9 °F 33.5 °F 23.0 °F 55% 29.95 in 10.0 mi South 5.8 mph - N/A   Clear
1:53 AM 37.0 °F 32.4 °F 23.0 °F 57% 29.94 in 10.0 mi South 5.8 mph - N/A   Clear
2:53 AM 37.9 °F 33.5 °F 23.0 °F 55% 29.94 in 10.0 mi South 5.8 mph - N/A   Clear
3:53 AM 39.0 °F 34.0 °F 23.0 °F 53% 29.91 in 10.0 mi South 6.9 mph - N/A   Clear
4:53 AM 39.0 °F 35.7 °F 23.0 °F 53% 29.89 in 10.0 mi SSW 4.6 mph - N/A   Clear
5:53 AM 39.9 °F 35.1 °F 23.0 °F 51% 29.88 in 10.0 mi South 6.9 mph - N/A   Clear
6:53 AM 39.9 °F 35.1 °F 23.0 °F 51% 29.88 in 10.0 mi South 6.9 mph - N/A   Clear
7:53 AM 42.1 °F 35.7 °F 23.0 °F 47% 29.88 in 10.0 mi South 11.5 mph 20.7 mph N/A   Clear
8:53 AM 46.0 °F 40.2 °F 24.1 °F 42% 29.88 in 10.0 mi South 12.7 mph - N/A   Clear
9:53 AM 53.1 °F - 25.0 °F 34% 29.88 in 10.0 mi South 16.1 mph 23.0 mph N/A   Clear
10:53 AM 59.0 °F - 27.0 °F 29% 29.88 in 10.0 mi South 15.0 mph 21.9 mph N/A   Clear
11:53 AM 63.0 °F - 28.0 °F 27% 29.87 in 10.0 mi South 13.8 mph - N/A   Clear
12:53 PM 69.1 °F - 28.0 °F 22% 29.85 in 10.0 mi SSW 15.0 mph 20.7 mph N/A   Clear
1:53 PM 71.1 °F - 26.1 °F 19% 29.82 in 10.0 mi SSW 12.7 mph 17.3 mph N/A   Clear
2:53 PM 72.0 °F - 25.0 °F 17% 29.79 in 10.0 mi Variable 5.8 mph - N/A   Clear
3:53 PM 73.0 °F - 28.0 °F 19% 29.77 in 10.0 mi Variable 4.6 mph - N/A   Clear
4:53 PM 73.9 °F - 27.0 °F 18% 29.75 in 10.0 mi SSE 5.8 mph - N/A   Clear
5:53 PM 73.9 °F - 26.1 °F 17% 29.75 in 10.0 mi Calm Calm - N/A   Clear
6:53 PM 66.9 °F - 32.0 °F 27% 29.77 in 10.0 mi NE 6.9 mph - N/A   Mostly Cloudy
7:53 PM 52.0 °F - 33.1 °F 49% 29.87 in 10.0 mi NE 23.0 mph 32.2 mph N/A   Mostly Cloudy
8:53 PM 46.9 °F - 30.0 °F 52% 29.94 in 10.0 mi NE 25.3 mph 34.5 mph N/A   Clear
9:53 PM 39.9 °F 30.0 °F 28.9 °F 65% 30.02 in 10.0 mi NNE 21.9 mph 33.4 mph N/A   Clear
10:53 PM 39.9 °F 30.0 °F 27.0 °F 60% 30.07 in 10.0 mi NNE 21.9 mph 28.8 mph N/A   Partly Cloudy
11:53 PM 37.0 °F 26.4 °F 28.0 °F 70% 30.10 in 10.0 mi NNE 20.7 mph 35.7 mph N/A   Overcast